TimeCST,TemperatureF,Dew PointF,Humidity,Sea Level PressureIn,VisibilityMPH,Wind Direction,Wind SpeedMPH,Gust SpeedMPH,PrecipitationIn,Events,Conditions,WindDirDegrees,DateUTC
12:15 AM,26.6,26.6,100,29.65,2.5,North,16.1,24.2,N/A,Snow,Light Snow,350,2012-12-21 06:15:00
12:35 AM,26.6,24.8,93,29.66,2.0,North,23.0,33.4,N/A,Snow,Light Snow,350,2012-12-21 06:35:00
12:55 AM,26.6,24.8,93,29.67,3.0,North,20.7,31.1,N/A,Snow,Light Snow,350,2012-12-21 06:55:00
1:15 AM,26.6,23.0,86,29.68,3.0,North,21.9,31.1,N/A,Snow,Light Snow,350,2012-12-21 07:15:00
1:35 AM,26.6,23.0,86,29.69,3.0,North,16.1,28.8,N/A,Snow,Light Snow,360,2012-12-21 07:35:00
1:55 AM,26.6,23.0,86,29.70,3.0,North,23.0,31.1,N/A,Snow,Light Snow,350,2012-12-21 07:55:00
2:15 AM,26.6,23.0,86,29.72,4.0,North,23.0,29.9,N/A,Snow,Light Snow,350,2012-12-21 08:15:00
2:35 AM,24.8,21.2,86,29.73,5.0,NNW,19.6,29.9,N/A,Snow,Light Snow,340,2012-12-21 08:35:00
2:55 AM,24.8,21.2,86,29.73,5.0,NNW,17.3,31.1,N/A,Snow,Light Snow,340,2012-12-21 08:55:00
3:15 AM,24.8,21.2,86,29.74,7.0,NNW,18.4,25.3,N/A,Snow,Light Snow,340,2012-12-21 09:15:00
3:35 AM,24.8,21.2,86,29.75,5.0,North,16.1,25.3,N/A,Snow,Light Snow,350,2012-12-21 09:35:00
3:55 AM,24.8,21.2,86,29.76,5.0,NNW,15.0,23.0,N/A,Snow,Light Snow,340,2012-12-21 09:55:00
4:15 AM,23.0,21.2,93,29.78,4.0,NNW,20.7,33.4,N/A,Snow,Light Snow,340,2012-12-21 10:15:00
4:35 AM,23.0,21.2,93,29.79,4.0,NNW,18.4,29.9,N/A,Snow,Light Snow,340,2012-12-21 10:35:00
4:55 AM,23.0,21.2,93,29.79,3.0,North,18.4,32.2,N/A,Snow,Light Snow,350,2012-12-21 10:55:00
5:15 AM,23.0,19.4,86,29.81,3.0,North,21.9,31.1,N/A,Snow,Light Snow,350,2012-12-21 11:15:00
5:35 AM,23.0,19.4,86,29.82,3.0,North,19.6,29.9,N/A,Snow,Light Snow,350,2012-12-21 11:35:00
5:55 AM,23.0,19.4,86,29.82,4.0,NNW,15.0,27.6,N/A,Snow,Light Snow,340,2012-12-21 11:55:00
6:15 AM,23.0,19.4,86,29.84,4.0,NNW,23.0,28.8,N/A,Snow,Light Snow,340,2012-12-21 12:15:00
6:35 AM,23.0,19.4,86,29.85,4.0,NNW,21.9,31.1,N/A,Snow,Light Snow,340,2012-12-21 12:35:00
6:55 AM,23.0,19.4,86,29.86,4.0,NNW,16.1,25.3,N/A,Snow,Light Snow,340,2012-12-21 12:55:00
7:15 AM,23.0,19.4,86,29.87,4.0,NNW,20.7,32.2,N/A,Snow,Light Snow,340,2012-12-21 13:15:00
7:35 AM,23.0,19.4,86,29.88,3.0,North,19.6,29.9,N/A,Snow,Light Snow,350,2012-12-21 13:35:00
7:55 AM,21.2,19.4,93,29.89,4.0,NNW,16.1,21.9,N/A,Snow,Light Snow,340,2012-12-21 13:55:00
8:15 AM,21.2,17.6,86,29.90,4.0,NNW,24.2,27.6,N/A,,Overcast,330,2012-12-21 14:15:00
8:35 AM,21.2,17.6,86,29.92,3.0,NNW,15.0,32.2,N/A,,Overcast,340,2012-12-21 14:35:00
8:55 AM,21.2,17.6,86,29.92,3.0,NNW,18.4,28.8,N/A,,Overcast,340,2012-12-21 14:55:00
9:15 AM,21.2,17.6,86,29.94,4.0,NNW,15.0,25.3,N/A,Snow,Light Snow,340,2012-12-21 15:15:00
9:35 AM,21.2,17.6,86,29.94,4.0,North,16.1,25.3,N/A,Snow,Light Snow,350,2012-12-21 15:35:00
9:55 AM,21.2,17.6,86,29.95,4.0,North,15.0,21.9,N/A,Snow,Light Snow,350,2012-12-21 15:55:00
10:15 AM,21.2,17.6,86,29.96,4.0,North,19.6,24.2,N/A,Snow,Light Snow,360,2012-12-21 16:15:00
10:35 AM,21.2,17.6,86,29.96,4.0,North,16.1,27.6,N/A,Snow,Light Snow,360,2012-12-21 16:35:00
10:55 AM,21.2,17.6,86,29.96,4.0,North,20.7,27.6,N/A,,Haze,350,2012-12-21 16:55:00
11:15 AM,21.2,17.6,86,29.96,4.0,NNW,19.6,27.6,N/A,,Haze,340,2012-12-21 17:15:00
11:35 AM,21.2,17.6,86,29.96,4.0,North,18.4,28.8,N/A,Snow,Light Snow,350,2012-12-21 17:35:00
11:55 AM,21.2,17.6,86,29.96,10.0,North,15.0,23.0,N/A,,Overcast,10,2012-12-21 17:55:00
12:15 PM,21.2,17.6,86,29.97,7.0,North,18.4,26.5,N/A,,Overcast,360,2012-12-21 18:15:00
12:35 PM,21.2,17.6,86,29.97,10.0,North,17.3,23.0,N/A,,Overcast,360,2012-12-21 18:35:00
12:55 PM,21.2,17.6,86,29.98,7.0,NNW,10.4,-,N/A,Snow,Light Snow,340,2012-12-21 18:55:00
1:15 PM,21.2,15.8,80,29.98,4.0,North,17.3,24.2,N/A,Snow,Light Snow,350,2012-12-21 19:15:00
1:35 PM,21.2,15.8,80,29.99,10.0,North,16.1,21.9,N/A,,Overcast,350,2012-12-21 19:35:00
1:55 PM,21.2,15.8,80,29.99,10.0,NNW,12.7,-,N/A,,Overcast,340,2012-12-21 19:55:00
2:15 PM,21.2,15.8,80,30.00,10.0,NNW,18.4,26.5,N/A,,Overcast,340,2012-12-21 20:15:00
2:35 PM,21.2,15.8,80,30.01,10.0,NNW,17.3,23.0,N/A,,Overcast,330,2012-12-21 20:35:00
2:55 PM,21.2,14.0,74,30.02,10.0,NNW,17.3,26.5,N/A,,Overcast,340,2012-12-21 20:55:00
3:15 PM,21.2,15.8,80,30.02,10.0,NNW,10.4,21.9,N/A,,Overcast,330,2012-12-21 21:15:00
3:35 PM,21.2,14.0,74,30.03,10.0,NNW,9.2,-,N/A,,Overcast,340,2012-12-21 21:35:00
3:55 PM,21.2,14.0,74,30.04,10.0,NNW,10.4,19.6,N/A,,Overcast,340,2012-12-21 21:55:00
4:15 PM,21.2,14.0,74,30.04,10.0,NNW,11.5,18.4,N/A,,Overcast,340,2012-12-21 22:15:00
4:35 PM,21.2,14.0,74,30.05,10.0,North,13.8,20.7,N/A,,Overcast,350,2012-12-21 22:35:00
4:55 PM,21.2,14.0,74,30.06,10.0,NNW,17.3,-,N/A,,Overcast,330,2012-12-21 22:55:00
5:15 PM,21.2,14.0,74,30.06,10.0,NNW,13.8,-,N/A,,Overcast,340,2012-12-21 23:15:00
5:35 PM,21.2,14.0,74,30.06,10.0,NNW,9.2,-,N/A,,Overcast,340,2012-12-21 23:35:00
5:55 PM,21.2,15.8,80,30.06,10.0,NNW,12.7,19.6,N/A,,Overcast,330,2012-12-21 23:55:00
6:15 PM,21.2,14.0,74,30.07,10.0,NNW,11.5,-,N/A,,Overcast,340,2012-12-22 00:15:00
6:35 PM,21.2,15.8,80,30.07,10.0,NNW,9.2,-,N/A,,Overcast,340,2012-12-22 00:35:00
6:55 PM,21.2,15.8,80,30.07,10.0,NNW,9.2,-,N/A,,Overcast,330,2012-12-22 00:55:00
7:15 PM,21.2,15.8,80,30.06,10.0,NNW,8.1,-,N/A,,Overcast,340,2012-12-22 01:15:00
7:35 PM,21.2,15.8,80,30.06,10.0,NNW,9.2,16.1,N/A,,Overcast,330,2012-12-22 01:35:00
7:55 PM,21.2,14.0,74,30.06,10.0,NW,8.1,-,N/A,,Overcast,320,2012-12-22 01:55:00
8:15 PM,21.2,14.0,74,30.06,10.0,NW,8.1,-,N/A,,Overcast,310,2012-12-22 02:15:00
8:35 PM,19.4,14.0,80,30.06,10.0,WNW,8.1,-,N/A,,Overcast,300,2012-12-22 02:35:00
8:55 PM,21.2,14.0,74,30.07,10.0,WNW,9.2,-,N/A,,Overcast,300,2012-12-22 02:55:00
9:15 PM,21.2,15.8,80,30.06,10.0,WNW,8.1,-,N/A,,Overcast,300,2012-12-22 03:15:00
9:35 PM,21.2,15.8,80,30.07,10.0,West,9.2,-,N/A,,Overcast,280,2012-12-22 03:35:00
9:55 PM,19.4,14.0,80,30.07,10.0,WNW,8.1,-,N/A,,Overcast,290,2012-12-22 03:55:00
10:15 PM,19.4,14.0,80,30.07,10.0,West,8.1,-,N/A,,Overcast,280,2012-12-22 04:15:00
10:35 PM,19.4,14.0,80,30.07,10.0,WNW,9.2,-,N/A,,Overcast,290,2012-12-22 04:35:00
10:55 PM,19.4,14.0,80,30.07,10.0,West,5.8,-,N/A,,Overcast,280,2012-12-22 04:55:00
11:15 PM,19.4,14.0,80,30.07,10.0,West,5.8,-,N/A,,Overcast,280,2012-12-22 05:15:00
11:35 PM,19.4,14.0,80,30.06,10.0,West,5.8,-,N/A,,Overcast,270,2012-12-22 05:35:00
11:55 PM,19.4,14.0,80,30.06,10.0,West,6.9,-,N/A,,Overcast,270,2012-12-22 05:55:00